Year,Month,Day,Hour,Minute,Value (Times are PST for temperature in C)
2016,04,08,00,00,14.60
2016,04,08,00,01,14.60
2016,04,08,00,02,14.60
2016,04,08,00,03,14.50
2016,04,08,00,04,14.40
2016,04,08,00,05,14.40
2016,04,08,00,06,14.30
2016,04,08,00,07,14.30
2016,04,08,00,08,14.30
2016,04,08,00,09,14.30
2016,04,08,00,10,14.30
2016,04,08,00,11,14.30
2016,04,08,00,12,14.30
2016,04,08,00,13,14.30
2016,04,08,00,14,14.30
2016,04,08,00,15,14.30
2016,04,08,00,16,14.40
2016,04,08,00,17,14.40
2016,04,08,00,18,14.50
2016,04,08,00,19,14.50
2016,04,08,00,20,14.50
2016,04,08,00,21,14.50
2016,04,08,00,22,14.50
2016,04,08,00,23,14.50
2016,04,08,00,24,14.50
2016,04,08,00,25,14.50
2016,04,08,00,26,14.50
2016,04,08,00,27,14.60
2016,04,08,00,28,14.60
2016,04,08,00,29,14.60
2016,04,08,00,30,14.60
2016,04,08,00,31,14.60
2016,04,08,00,32,14.50
2016,04,08,00,33,14.50
2016,04,08,00,34,14.50
2016,04,08,00,35,14.50
2016,04,08,00,36,14.50
2016,04,08,00,37,14.50
2016,04,08,00,38,14.50
2016,04,08,00,39,14.50
2016,04,08,00,40,14.50
2016,04,08,00,41,14.40
2016,04,08,00,42,14.40
2016,04,08,00,43,14.40
2016,04,08,00,44,14.40
2016,04,08,00,45,14.40
2016,04,08,00,46,14.40
2016,04,08,00,47,14.30
2016,04,08,00,48,14.30
2016,04,08,00,49,14.20
2016,04,08,00,50,14.10
2016,04,08,00,51,14.00
2016,04,08,00,52,14.00
2016,04,08,00,53,13.90
2016,04,08,00,54,13.90
2016,04,08,00,55,13.80
2016,04,08,00,56,13.80
2016,04,08,00,57,13.80
2016,04,08,00,58,13.80
2016,04,08,00,59,13.80
2016,04,08,01,00,13.80
2016,04,08,01,01,13.80
2016,04,08,01,02,13.90
2016,04,08,01,03,13.80
2016,04,08,01,04,13.80
2016,04,08,01,05,13.80
2016,04,08,01,06,13.80
2016,04,08,01,07,13.80
2016,04,08,01,08,13.80
2016,04,08,01,09,13.90
2016,04,08,01,10,13.90
2016,04,08,01,11,14.00
2016,04,08,01,12,14.00
2016,04,08,01,13,14.10
2016,04,08,01,14,14.10
2016,04,08,01,15,14.10
2016,04,08,01,16,14.10
2016,04,08,01,17,14.10
2016,04,08,01,18,14.10
2016,04,08,01,19,14.20
2016,04,08,01,20,14.20
2016,04,08,01,21,14.20
2016,04,08,01,22,14.10
2016,04,08,01,23,14.10
2016,04,08,01,24,14.00
2016,04,08,01,25,13.90
2016,04,08,01,26,13.70
2016,04,08,01,27,13.60
2016,04,08,01,28,13.40
2016,04,08,01,29,13.30
2016,04,08,01,30,13.20
2016,04,08,01,31,13.10
2016,04,08,01,32,13.00
2016,04,08,01,33,12.80
2016,04,08,01,34,12.70
2016,04,08,01,35,12.70
2016,04,08,01,36,12.70
2016,04,08,01,37,12.70
2016,04,08,01,38,12.70
2016,04,08,01,39,12.80
2016,04,08,01,40,12.80
2016,04,08,01,41,12.90
2016,04,08,01,42,13.00
2016,04,08,01,43,13.20
2016,04,08,01,44,13.30
2016,04,08,01,45,13.50
2016,04,08,01,46,13.60
2016,04,08,01,47,13.80
2016,04,08,01,48,13.90
2016,04,08,01,49,14.10
2016,04,08,01,50,14.30
2016,04,08,01,51,14.40
2016,04,08,01,52,14.50
2016,04,08,01,53,14.60
2016,04,08,01,54,14.70
2016,04,08,01,55,14.80
2016,04,08,01,56,14.80
2016,04,08,01,57,14.90
2016,04,08,01,58,15.00
2016,04,08,01,59,15.00
2016,04,08,02,00,15.00
2016,04,08,02,01,15.00
2016,04,08,02,02,15.00
2016,04,08,02,03,15.00
2016,04,08,02,04,15.00
2016,04,08,02,05,15.00
2016,04,08,02,06,14.90
2016,04,08,02,07,14.90
2016,04,08,02,08,14.80
2016,04,08,02,09,14.80
2016,04,08,02,10,14.80
2016,04,08,02,11,14.80
2016,04,08,02,12,14.80
2016,04,08,02,13,14.80
2016,04,08,02,14,14.80
2016,04,08,02,15,14.80
2016,04,08,02,16,14.80
2016,04,08,02,17,14.80
2016,04,08,02,18,14.80
2016,04,08,02,19,14.90
2016,04,08,02,20,14.90
2016,04,08,02,21,14.80
2016,04,08,02,22,14.80
2016,04,08,02,23,14.80
2016,04,08,02,24,14.70
2016,04,08,02,25,14.70
2016,04,08,02,26,14.70
2016,04,08,02,27,14.70
2016,04,08,02,28,14.80
2016,04,08,02,29,14.80
2016,04,08,02,30,14.80
2016,04,08,02,31,14.70
2016,04,08,02,32,14.70
2016,04,08,02,33,14.60
2016,04,08,02,34,14.60
2016,04,08,02,35,14.50
2016,04,08,02,36,14.50
2016,04,08,02,37,14.50
2016,04,08,02,38,14.50
2016,04,08,02,39,14.50
2016,04,08,02,40,14.60
2016,04,08,02,41,14.60
2016,04,08,02,42,14.60
2016,04,08,02,43,14.60
2016,04,08,02,44,14.60
2016,04,08,02,45,14.60
2016,04,08,02,46,14.60
2016,04,08,02,47,14.60
2016,04,08,02,48,14.60
2016,04,08,02,49,14.60
2016,04,08,02,50,14.60
2016,04,08,02,51,14.60
2016,04,08,02,52,14.60
2016,04,08,02,53,14.60
2016,04,08,02,54,14.70
2016,04,08,02,55,14.70
2016,04,08,02,56,14.70
2016,04,08,02,57,14.70
2016,04,08,02,58,14.70
2016,04,08,02,59,14.70
2016,04,08,03,00,14.70
2016,04,08,03,01,14.80
2016,04,08,03,02,14.80
2016,04,08,03,03,14.80
2016,04,08,03,04,14.80
2016,04,08,03,05,14.80
2016,04,08,03,06,14.80
2016,04,08,03,07,14.80
2016,04,08,03,08,14.80
2016,04,08,03,09,14.80
2016,04,08,03,10,14.80
2016,04,08,03,11,14.90
2016,04,08,03,12,14.90
2016,04,08,03,13,15.00
2016,04,08,03,14,15.00
2016,04,08,03,15,15.00
2016,04,08,03,16,15.00
2016,04,08,03,17,15.00
2016,04,08,03,18,15.00
2016,04,08,03,19,15.00
2016,04,08,03,20,15.00
2016,04,08,03,21,15.00
2016,04,08,03,22,15.00
2016,04,08,03,23,15.00
2016,04,08,03,24,15.00
2016,04,08,03,25,15.00
2016,04,08,03,26,15.00
2016,04,08,03,27,15.00
2016,04,08,03,28,15.00
2016,04,08,03,29,15.00
2016,04,08,03,30,15.00
2016,04,08,03,31,15.00
2016,04,08,03,32,15.00
2016,04,08,03,33,15.00
2016,04,08,03,34,15.00
2016,04,08,03,35,15.00
2016,04,08,03,36,15.00
2016,04,08,03,37,15.00
2016,04,08,03,38,15.10
2016,04,08,03,39,15.10
2016,04,08,03,40,15.10
2016,04,08,03,41,15.10
2016,04,08,03,42,15.10
2016,04,08,03,43,15.10
2016,04,08,03,44,15.10
2016,04,08,03,45,15.10
2016,04,08,03,46,15.10
2016,04,08,03,47,15.10
2016,04,08,03,48,15.10
2016,04,08,03,49,15.10
2016,04,08,03,50,15.00
2016,04,08,03,51,15.00
2016,04,08,03,52,15.00
2016,04,08,03,53,15.00
2016,04,08,03,54,15.00
2016,04,08,03,55,15.00
2016,04,08,03,56,15.00
2016,04,08,03,57,15.00
2016,04,08,03,58,15.00
2016,04,08,03,59,15.00
2016,04,08,04,00,15.00
2016,04,08,04,01,15.00
2016,04,08,04,02,15.00
2016,04,08,04,03,15.00
2016,04,08,04,04,15.00
2016,04,08,04,05,14.90
2016,04,08,04,06,14.90
2016,04,08,04,07,14.80
2016,04,08,04,08,14.80
2016,04,08,04,09,14.80
2016,04,08,04,10,14.80
2016,04,08,04,11,14.70
2016,04,08,04,12,14.70
2016,04,08,04,13,14.70
2016,04,08,04,14,14.70
2016,04,08,04,15,14.60
2016,04,08,04,16,14.60
2016,04,08,04,17,14.60
2016,04,08,04,18,14.60
2016,04,08,04,19,14.50
2016,04,08,04,20,14.50
2016,04,08,04,21,14.50
2016,04,08,04,22,14.50
2016,04,08,04,23,14.50
2016,04,08,04,24,14.50
2016,04,08,04,25,14.50
2016,04,08,04,26,14.50
2016,04,08,04,27,14.50
2016,04,08,04,28,14.50
2016,04,08,04,29,14.50
2016,04,08,04,30,14.50
2016,04,08,04,31,14.50
2016,04,08,04,32,14.50
2016,04,08,04,33,14.50
2016,04,08,04,34,14.40
2016,04,08,04,35,14.40
2016,04,08,04,36,14.40
2016,04,08,04,37,14.40
2016,04,08,04,38,14.40
2016,04,08,04,39,14.40
2016,04,08,04,40,14.40
2016,04,08,04,41,14.40
2016,04,08,04,42,14.40
2016,04,08,04,43,14.40
2016,04,08,04,44,14.40
2016,04,08,04,45,14.40
2016,04,08,04,46,14.40
2016,04,08,04,47,14.40
2016,04,08,04,48,14.40
2016,04,08,04,49,14.30
2016,04,08,04,50,14.30
2016,04,08,04,51,14.30
2016,04,08,04,52,14.30
2016,04,08,04,53,14.20
2016,04,08,04,54,14.10
2016,04,08,04,55,14.00
2016,04,08,04,56,13.80
2016,04,08,04,57,13.70
2016,04,08,04,58,13.60
2016,04,08,04,59,13.50
2016,04,08,05,00,13.40
2016,04,08,05,01,13.40
2016,04,08,05,02,13.40
2016,04,08,05,03,13.30
2016,04,08,05,04,13.30
2016,04,08,05,05,13.30
2016,04,08,05,06,13.30
2016,04,08,05,07,13.20
2016,04,08,05,08,13.20
2016,04,08,05,09,13.20
2016,04,08,05,10,13.20
2016,04,08,05,11,13.20
2016,04,08,05,12,13.20
2016,04,08,05,13,13.20
2016,04,08,05,14,13.20
2016,04,08,05,15,13.20
2016,04,08,05,16,13.30
2016,04,08,05,17,13.20
2016,04,08,05,18,13.20
2016,04,08,05,19,13.20
2016,04,08,05,20,13.20
2016,04,08,05,21,13.20
2016,04,08,05,22,13.10
2016,04,08,05,23,13.10
2016,04,08,05,24,13.10
2016,04,08,05,25,13.10
2016,04,08,05,26,13.00
2016,04,08,05,27,13.00
2016,04,08,05,28,13.00
2016,04,08,05,29,13.00
2016,04,08,05,30,13.00
2016,04,08,05,31,13.00
2016,04,08,05,32,13.00
2016,04,08,05,33,13.00
2016,04,08,05,34,13.00
2016,04,08,05,35,13.00
2016,04,08,05,36,13.00
2016,04,08,05,37,13.00
2016,04,08,05,38,13.00
2016,04,08,05,39,13.10
2016,04,08,05,40,13.10
2016,04,08,05,41,13.10
2016,04,08,05,42,13.10
2016,04,08,05,43,13.20
2016,04,08,05,44,13.20
2016,04,08,05,45,13.20
2016,04,08,05,46,13.20
2016,04,08,05,47,13.20
2016,04,08,05,48,13.20
2016,04,08,05,49,13.20
2016,04,08,05,50,13.20
2016,04,08,05,51,13.20
2016,04,08,05,52,13.20
2016,04,08,05,53,13.20
2016,04,08,05,54,13.20
2016,04,08,05,55,13.20
2016,04,08,05,56,13.20
2016,04,08,05,57,13.20
2016,04,08,05,58,13.20
2016,04,08,05,59,13.30
2016,04,08,06,00,13.30
2016,04,08,06,01,13.20
2016,04,08,06,02,13.20
2016,04,08,06,03,13.20
2016,04,08,06,04,13.20
2016,04,08,06,05,13.20
2016,04,08,06,06,13.20
2016,04,08,06,07,13.20
2016,04,08,06,08,13.20
2016,04,08,06,09,13.20
2016,04,08,06,10,13.20
2016,04,08,06,11,13.20
2016,04,08,06,12,13.20
2016,04,08,06,13,13.20
2016,04,08,06,14,13.20
2016,04,08,06,15,13.20
2016,04,08,06,16,13.20
2016,04,08,06,17,13.20
2016,04,08,06,18,13.20
2016,04,08,06,19,13.20
2016,04,08,06,20,13.20
2016,04,08,06,21,13.20
2016,04,08,06,22,13.20
2016,04,08,06,23,13.20
2016,04,08,06,24,13.20
2016,04,08,06,25,13.10
2016,04,08,06,26,13.10
2016,04,08,06,27,13.10
2016,04,08,06,28,13.00
2016,04,08,06,29,13.00
2016,04,08,06,30,13.00
2016,04,08,06,31,12.90
2016,04,08,06,32,12.90
2016,04,08,06,33,12.90
2016,04,08,06,34,12.90
2016,04,08,06,35,12.90
2016,04,08,06,36,12.90
2016,04,08,06,37,12.90
2016,04,08,06,38,12.90
2016,04,08,06,39,12.90
2016,04,08,06,40,12.90
2016,04,08,06,41,12.90
2016,04,08,06,42,13.00
2016,04,08,06,43,13.00
2016,04,08,06,44,13.00
2016,04,08,06,45,13.10
2016,04,08,06,46,13.10
2016,04,08,06,47,13.10
2016,04,08,06,48,13.10
2016,04,08,06,49,13.10
2016,04,08,06,50,13.00
2016,04,08,06,51,13.00
2016,04,08,06,52,13.00
2016,04,08,06,53,13.00
2016,04,08,06,54,12.90
2016,04,08,06,55,12.90
2016,04,08,06,56,12.90
2016,04,08,06,57,13.00
2016,04,08,06,58,13.00
2016,04,08,06,59,13.00
2016,04,08,07,00,13.00
2016,04,08,07,01,13.00
2016,04,08,07,02,13.00
2016,04,08,07,03,13.00
2016,04,08,07,04,13.00
2016,04,08,07,05,13.00
2016,04,08,07,06,12.90
2016,04,08,07,07,12.90
2016,04,08,07,08,12.90
2016,04,08,07,09,12.90
2016,04,08,07,10,12.90
2016,04,08,07,11,12.90
2016,04,08,07,12,12.90
2016,04,08,07,13,12.90
2016,04,08,07,14,12.90
2016,04,08,07,15,12.80
2016,04,08,07,16,12.80
2016,04,08,07,17,12.80
2016,04,08,07,18,12.80
2016,04,08,07,19,12.80
2016,04,08,07,20,12.80
2016,04,08,07,21,12.80
2016,04,08,07,22,12.70
2016,04,08,07,23,12.80
2016,04,08,07,24,12.80
2016,04,08,07,25,12.80
2016,04,08,07,26,12.80
2016,04,08,07,27,12.80
2016,04,08,07,28,12.80
2016,04,08,07,29,12.80
2016,04,08,07,30,12.90
2016,04,08,07,31,12.90
2016,04,08,07,32,12.90
2016,04,08,07,33,13.00
2016,04,08,07,34,13.00
2016,04,08,07,35,13.10
2016,04,08,07,36,13.10
2016,04,08,07,37,13.10
2016,04,08,07,38,13.10
2016,04,08,07,39,13.00
2016,04,08,07,40,13.00
2016,04,08,07,41,13.00
2016,04,08,07,42,13.00
2016,04,08,07,43,13.00
2016,04,08,07,44,13.00
2016,04,08,07,45,13.00
2016,04,08,07,46,13.00
2016,04,08,07,47,12.90
2016,04,08,07,48,12.90
2016,04,08,07,49,12.90
2016,04,08,07,50,12.90
2016,04,08,07,51,13.00
2016,04,08,07,52,13.00
2016,04,08,07,53,13.00
2016,04,08,07,54,13.10
2016,04,08,07,55,13.10
2016,04,08,07,56,13.10
2016,04,08,07,57,13.10
2016,04,08,07,58,13.20
2016,04,08,07,59,13.20
2016,04,08,08,00,13.20
2016,04,08,08,01,13.30
2016,04,08,08,02,13.30
2016,04,08,08,03,13.40
2016,04,08,08,04,13.40
2016,04,08,08,05,13.50
2016,04,08,08,06,13.50
2016,04,08,08,07,13.60
2016,04,08,08,08,13.60
2016,04,08,08,09,13.70
2016,04,08,08,10,13.70
2016,04,08,08,11,13.80
2016,04,08,08,12,13.80
2016,04,08,08,13,13.80
2016,04,08,08,14,13.90
2016,04,08,08,15,14.00
2016,04,08,08,16,14.00
2016,04,08,08,17,14.10
2016,04,08,08,18,14.20
2016,04,08,08,19,14.20
2016,04,08,08,20,14.30
2016,04,08,08,21,14.30
2016,04,08,08,22,14.30
2016,04,08,08,23,14.20
2016,04,08,08,24,14.20
2016,04,08,08,25,14.10
2016,04,08,08,26,14.10
2016,04,08,08,27,14.10
2016,04,08,08,28,14.10
2016,04,08,08,29,14.20
2016,04,08,08,30,14.30
2016,04,08,08,31,14.40
2016,04,08,08,32,14.50
2016,04,08,08,33,14.70
2016,04,08,08,34,14.80
2016,04,08,08,35,14.90
2016,04,08,08,36,15.00
2016,04,08,08,37,15.00
2016,04,08,08,38,15.00
2016,04,08,08,39,15.00
2016,04,08,08,40,15.00
2016,04,08,08,41,15.00
2016,04,08,08,42,15.00
2016,04,08,08,43,15.00
2016,04,08,08,44,15.00
2016,04,08,08,45,15.00
2016,04,08,08,46,15.00
2016,04,08,08,47,15.00
2016,04,08,08,48,15.00
2016,04,08,08,49,15.00
2016,04,08,08,50,15.00
2016,04,08,08,51,14.90
2016,04,08,08,52,14.90
2016,04,08,08,53,14.80
2016,04,08,08,54,14.70
2016,04,08,08,55,14.70
2016,04,08,08,56,14.70
2016,04,08,08,57,14.70
2016,04,08,08,58,14.70
2016,04,08,08,59,14.70
2016,04,08,09,00,14.70
2016,04,08,09,01,14.70
2016,04,08,09,02,14.70
2016,04,08,09,03,14.60
2016,04,08,09,04,14.60
2016,04,08,09,05,14.50
2016,04,08,09,06,14.50
2016,04,08,09,07,14.50
2016,04,08,09,08,14.40
2016,04,08,09,09,14.40
2016,04,08,09,10,14.40
2016,04,08,09,11,14.50
2016,04,08,09,12,14.60
2016,04,08,09,13,14.60
2016,04,08,09,14,14.60
2016,04,08,09,15,14.60
2016,04,08,09,16,14.50
2016,04,08,09,17,14.40
2016,04,08,09,18,14.40
2016,04,08,09,19,14.30
2016,04,08,09,20,14.30
2016,04,08,09,21,14.30
2016,04,08,09,22,14.30
2016,04,08,09,23,14.30
2016,04,08,09,24,14.30
2016,04,08,09,25,14.30
2016,04,08,09,26,14.30
2016,04,08,09,27,14.30
2016,04,08,09,28,14.40
2016,04,08,09,29,14.40
2016,04,08,09,30,14.50
2016,04,08,09,31,14.60
2016,04,08,09,32,14.70
2016,04,08,09,33,14.70
2016,04,08,09,34,14.80
2016,04,08,09,35,14.80
2016,04,08,09,36,14.80
2016,04,08,09,37,14.90
2016,04,08,09,38,15.00
2016,04,08,09,39,15.00
2016,04,08,09,40,15.00
2016,04,08,09,41,15.10
2016,04,08,09,42,15.20
2016,04,08,09,43,15.30
2016,04,08,09,44,15.40
2016,04,08,09,45,15.50
2016,04,08,09,46,15.60
2016,04,08,09,47,15.60
2016,04,08,09,48,15.60
2016,04,08,09,49,15.60
2016,04,08,09,50,15.70
2016,04,08,09,51,15.70
2016,04,08,09,52,15.70
2016,04,08,09,53,15.80
2016,04,08,09,54,15.90
2016,04,08,09,55,15.90
2016,04,08,09,56,16.00
2016,04,08,09,57,16.00
2016,04,08,09,58,16.10
2016,04,08,09,59,16.10
2016,04,08,10,00,16.10
2016,04,08,10,01,16.20
2016,04,08,10,02,16.20
2016,04,08,10,03,16.20
2016,04,08,10,04,16.30
2016,04,08,10,05,16.30
2016,04,08,10,06,16.40
2016,04,08,10,07,16.50
2016,04,08,10,08,16.60
2016,04,08,10,09,16.70
2016,04,08,10,10,16.70
2016,04,08,10,11,16.70
2016,04,08,10,12,16.70
2016,04,08,10,13,16.70
2016,04,08,10,14,16.70
2016,04,08,10,15,16.60
2016,04,08,10,16,16.60
2016,04,08,10,17,16.70
2016,04,08,10,18,16.80
2016,04,08,10,19,16.90
2016,04,08,10,20,17.00
2016,04,08,10,21,17.10
2016,04,08,10,22,17.20
2016,04,08,10,23,17.20
2016,04,08,10,24,17.30
2016,04,08,10,25,17.30
2016,04,08,10,26,17.40
2016,04,08,10,27,17.40
2016,04,08,10,28,17.40
2016,04,08,10,29,17.50
2016,04,08,10,30,17.50
2016,04,08,10,31,17.60
2016,04,08,10,32,17.60
2016,04,08,10,33,17.70
2016,04,08,10,34,17.70
2016,04,08,10,35,17.80
2016,04,08,10,36,17.70
2016,04,08,10,37,17.70
2016,04,08,10,38,17.70
2016,04,08,10,39,17.70
2016,04,08,10,40,17.60
2016,04,08,10,41,17.60
2016,04,08,10,42,17.60
2016,04,08,10,43,17.60
2016,04,08,10,44,17.60
2016,04,08,10,45,17.60
2016,04,08,10,46,17.60
2016,04,08,10,47,17.70
2016,04,08,10,48,17.60
2016,04,08,10,49,17.50
2016,04,08,10,50,17.50
2016,04,08,10,51,17.40
2016,04,08,10,52,17.40
2016,04,08,10,53,17.40
2016,04,08,10,54,17.40
2016,04,08,10,55,17.40
2016,04,08,10,56,17.40
2016,04,08,10,57,17.40
2016,04,08,10,58,17.30
2016,04,08,10,59,17.30
2016,04,08,11,00,17.20
2016,04,08,11,01,17.20
2016,04,08,11,02,17.20
2016,04,08,11,03,17.20
2016,04,08,11,04,17.20
2016,04,08,11,05,17.30
2016,04,08,11,06,17.30
2016,04,08,11,07,17.40
2016,04,08,11,08,17.50
2016,04,08,11,09,17.60
2016,04,08,11,10,17.70
2016,04,08,11,11,17.80
2016,04,08,11,12,17.90
2016,04,08,11,13,17.90
2016,04,08,11,14,17.90
2016,04,08,11,15,17.80
2016,04,08,11,16,17.60
2016,04,08,11,17,17.50
2016,04,08,11,18,17.40
2016,04,08,11,19,17.20
2016,04,08,11,20,17.10
2016,04,08,11,21,17.00
2016,04,08,11,22,17.00
2016,04,08,11,23,16.90
2016,04,08,11,24,17.00
2016,04,08,11,25,17.00
2016,04,08,11,26,17.00
2016,04,08,11,27,17.10
2016,04,08,11,28,17.10
2016,04,08,11,29,17.20
2016,04,08,11,30,17.20
2016,04,08,11,31,17.30
2016,04,08,11,32,17.30
2016,04,08,11,33,17.30
2016,04,08,11,34,17.40
2016,04,08,11,35,17.40
2016,04,08,11,36,17.50
2016,04,08,11,37,17.60
2016,04,08,11,38,17.60
2016,04,08,11,39,17.70
2016,04,08,11,40,17.80
2016,04,08,11,41,17.90
2016,04,08,11,42,18.00
2016,04,08,11,43,18.10
2016,04,08,11,44,18.20
2016,04,08,11,45,18.40
2016,04,08,11,46,18.50
2016,04,08,11,47,18.60
2016,04,08,11,48,18.70
2016,04,08,11,49,18.70
2016,04,08,11,50,18.70
2016,04,08,11,51,18.70
2016,04,08,11,52,18.60
2016,04,08,11,53,18.50
2016,04,08,11,54,18.40
2016,04,08,11,55,18.40
2016,04,08,11,56,18.40
2016,04,08,11,57,18.40
2016,04,08,11,58,18.40
2016,04,08,11,59,18.40
2016,04,08,12,00,18.30
2016,04,08,12,01,18.30
2016,04,08,12,02,18.30
2016,04,08,12,03,18.30
2016,04,08,12,04,18.30
2016,04,08,12,05,18.40
2016,04,08,12,06,18.50
2016,04,08,12,07,18.50
2016,04,08,12,08,18.60
2016,04,08,12,09,18.60
2016,04,08,12,10,18.70
2016,04,08,12,11,18.70
2016,04,08,12,12,18.80
2016,04,08,12,13,18.90
2016,04,08,12,14,18.90
2016,04,08,12,15,19.00
2016,04,08,12,16,19.10
2016,04,08,12,17,19.20
2016,04,08,12,18,19.30
2016,04,08,12,19,19.40
2016,04,08,12,20,19.50
2016,04,08,12,21,19.60
2016,04,08,12,22,19.60
2016,04,08,12,23,19.60
2016,04,08,12,24,19.60
2016,04,08,12,25,19.60
2016,04,08,12,26,19.50
2016,04,08,12,27,19.50
2016,04,08,12,28,19.50
2016,04,08,12,29,19.50
2016,04,08,12,30,19.50
2016,04,08,12,31,19.50
2016,04,08,12,32,19.50
2016,04,08,12,33,19.60
2016,04,08,12,34,19.60
2016,04,08,12,35,19.60
2016,04,08,12,36,19.70
2016,04,08,12,37,19.60
2016,04,08,12,38,19.50
2016,04,08,12,39,19.50
2016,04,08,12,40,19.40
2016,04,08,12,41,19.40
2016,04,08,12,42,19.30
2016,04,08,12,43,19.30
2016,04,08,12,44,19.20
2016,04,08,12,45,19.10
2016,04,08,12,46,19.00
2016,04,08,12,47,18.80
2016,04,08,12,48,18.70
2016,04,08,12,49,18.60
2016,04,08,12,50,18.60
2016,04,08,12,51,18.60
2016,04,08,12,52,18.60
2016,04,08,12,53,18.60
2016,04,08,12,54,18.60
2016,04,08,12,55,18.60
2016,04,08,12,56,18.60
2016,04,08,12,57,18.70
2016,04,08,12,58,18.60
2016,04,08,12,59,18.60
2016,04,08,13,00,18.60
2016,04,08,13,01,18.60
2016,04,08,13,02,18.60
2016,04,08,13,03,18.60
2016,04,08,13,04,18.60
2016,04,08,13,05,18.60
2016,04,08,13,06,18.70
2016,04,08,13,07,18.70
2016,04,08,13,08,18.70
2016,04,08,13,09,18.80
2016,04,08,13,10,18.80
2016,04,08,13,11,18.90
2016,04,08,13,12,19.00
2016,04,08,13,13,19.10
2016,04,08,13,14,19.20
2016,04,08,13,15,19.30
2016,04,08,13,16,19.40
2016,04,08,13,17,19.50
2016,04,08,13,18,19.50
2016,04,08,13,19,19.60
2016,04,08,13,20,19.60
2016,04,08,13,21,19.70
2016,04,08,13,22,19.80
2016,04,08,13,23,19.80
2016,04,08,13,24,19.80
2016,04,08,13,25,19.80
2016,04,08,13,26,19.80
2016,04,08,13,27,19.80
2016,04,08,13,28,19.80
2016,04,08,13,29,19.80
2016,04,08,13,30,19.70
2016,04,08,13,31,19.70
2016,04,08,13,32,19.80
2016,04,08,13,33,19.80
2016,04,08,13,34,19.80
2016,04,08,13,35,19.80
2016,04,08,13,36,19.90
2016,04,08,13,37,20.00
2016,04,08,13,38,20.10
2016,04,08,13,39,20.10
2016,04,08,13,40,20.20
2016,04,08,13,41,20.30
2016,04,08,13,42,20.40
2016,04,08,13,43,20.50
2016,04,08,13,44,20.60
2016,04,08,13,45,20.60
2016,04,08,13,46,20.70
2016,04,08,13,47,20.80
2016,04,08,13,48,20.80
2016,04,08,13,49,20.90
2016,04,08,13,50,20.90
2016,04,08,13,51,21.00
2016,04,08,13,52,21.00
2016,04,08,13,53,21.10
2016,04,08,13,54,21.10
2016,04,08,13,55,21.10
2016,04,08,13,56,21.10
2016,04,08,13,57,21.00
2016,04,08,13,58,20.90
2016,04,08,13,59,20.90
2016,04,08,14,00,20.80
2016,04,08,14,01,20.80
2016,04,08,14,02,20.70
2016,04,08,14,03,20.60
2016,04,08,14,04,20.50
2016,04,08,14,05,20.50
2016,04,08,14,06,20.40
2016,04,08,14,07,20.40
2016,04,08,14,08,20.30
2016,04,08,14,09,20.20
2016,04,08,14,10,20.10
2016,04,08,14,11,20.00
2016,04,08,14,12,19.90
2016,04,08,14,13,19.90
2016,04,08,14,14,19.90
2016,04,08,14,15,19.90
2016,04,08,14,16,19.90
2016,04,08,14,17,20.00
2016,04,08,14,18,20.10
2016,04,08,14,19,20.20
2016,04,08,14,20,20.20
2016,04,08,14,21,20.20
2016,04,08,14,22,20.10
2016,04,08,14,23,20.10
2016,04,08,14,24,20.10
2016,04,08,14,25,20.00
2016,04,08,14,26,20.00
2016,04,08,14,27,19.90
2016,04,08,14,28,19.80
2016,04,08,14,29,19.70
2016,04,08,14,30,19.70
2016,04,08,14,31,19.60
2016,04,08,14,32,19.60
2016,04,08,14,33,19.50
2016,04,08,14,34,19.40
2016,04,08,14,35,19.40
2016,04,08,14,36,19.30
2016,04,08,14,37,19.30
2016,04,08,14,38,19.40
2016,04,08,14,39,19.40
2016,04,08,14,40,19.30
2016,04,08,14,41,19.30
2016,04,08,14,42,19.20
2016,04,08,14,43,19.00
2016,04,08,14,44,18.90
2016,04,08,14,45,18.80
2016,04,08,14,46,18.80
2016,04,08,14,47,18.70
2016,04,08,14,48,18.80
2016,04,08,14,49,18.80
2016,04,08,14,50,18.80
2016,04,08,14,51,18.90
2016,04,08,14,52,18.90
2016,04,08,14,53,19.00
2016,04,08,14,54,19.00
2016,04,08,14,55,19.10
2016,04,08,14,56,19.10
2016,04,08,14,57,19.10
2016,04,08,14,58,19.10
2016,04,08,14,59,19.10
2016,04,08,15,00,19.10
2016,04,08,15,01,19.00
2016,04,08,15,02,19.00
2016,04,08,15,03,19.00
2016,04,08,15,04,19.10
2016,04,08,15,05,19.20
2016,04,08,15,06,19.20
2016,04,08,15,07,19.30
2016,04,08,15,08,19.30
2016,04,08,15,09,19.40
2016,04,08,15,10,19.40
2016,04,08,15,11,19.40
2016,04,08,15,12,19.40
2016,04,08,15,13,19.40
2016,04,08,15,14,19.40
2016,04,08,15,15,19.40
2016,04,08,15,16,19.40
2016,04,08,15,17,19.40
2016,04,08,15,18,19.40
2016,04,08,15,19,19.40
2016,04,08,15,20,19.50
2016,04,08,15,21,19.60
2016,04,08,15,22,19.70
2016,04,08,15,23,19.70
2016,04,08,15,24,19.80
2016,04,08,15,25,19.90
2016,04,08,15,26,20.00
2016,04,08,15,27,20.00
2016,04,08,15,28,20.10
2016,04,08,15,29,20.20
2016,04,08,15,30,20.20
2016,04,08,15,31,20.30
2016,04,08,15,32,20.30
2016,04,08,15,33,20.40
2016,04,08,15,34,20.40
2016,04,08,15,35,20.40
2016,04,08,15,36,20.50
2016,04,08,15,37,20.50
2016,04,08,15,38,20.60
2016,04,08,15,39,20.60
2016,04,08,15,40,20.60
2016,04,08,15,41,20.60
2016,04,08,15,42,20.60
2016,04,08,15,43,20.60
2016,04,08,15,44,20.60
2016,04,08,15,45,20.60
2016,04,08,15,46,20.60
2016,04,08,15,47,20.60
2016,04,08,15,48,20.70
2016,04,08,15,49,20.70
2016,04,08,15,50,20.70
2016,04,08,15,51,20.80
2016,04,08,15,52,20.80
2016,04,08,15,53,20.80
2016,04,08,15,54,20.80
2016,04,08,15,55,20.90
2016,04,08,15,56,21.00
2016,04,08,15,57,21.00
2016,04,08,15,58,21.00
2016,04,08,15,59,21.10
2016,04,08,16,00,21.10
2016,04,08,16,01,21.10
2016,04,08,16,02,21.20
2016,04,08,16,03,21.30
2016,04,08,16,04,21.40
2016,04,08,16,05,21.50
2016,04,08,16,06,21.60
2016,04,08,16,07,21.60
2016,04,08,16,08,21.60
2016,04,08,16,09,21.60
2016,04,08,16,10,21.50
2016,04,08,16,11,21.40
2016,04,08,16,12,21.40
2016,04,08,16,13,21.40
2016,04,08,16,14,21.30
2016,04,08,16,15,21.30
2016,04,08,16,16,21.30
2016,04,08,16,17,21.30
2016,04,08,16,18,21.40
2016,04,08,16,19,21.50
2016,04,08,16,20,21.50
2016,04,08,16,21,21.60
2016,04,08,16,22,21.60
2016,04,08,16,23,21.60
2016,04,08,16,24,21.60
2016,04,08,16,25,21.60
2016,04,08,16,26,21.60
2016,04,08,16,27,21.60
2016,04,08,16,28,21.60
2016,04,08,16,29,21.60
2016,04,08,16,30,21.60
2016,04,08,16,31,21.60
2016,04,08,16,32,21.60
2016,04,08,16,33,21.60
2016,04,08,16,34,21.60
2016,04,08,16,35,21.60
2016,04,08,16,36,21.60
2016,04,08,16,37,21.60
2016,04,08,16,38,21.60
2016,04,08,16,39,21.60
2016,04,08,16,40,21.60
2016,04,08,16,41,21.60
2016,04,08,16,42,21.60
2016,04,08,16,43,21.60
2016,04,08,16,44,21.60
2016,04,08,16,45,21.60
2016,04,08,16,46,21.60
2016,04,08,16,47,21.60
2016,04,08,16,48,21.60
2016,04,08,16,49,21.60
2016,04,08,16,50,21.70
2016,04,08,16,51,21.70
2016,04,08,16,52,21.70
2016,04,08,16,53,21.80
2016,04,08,16,54,21.70
2016,04,08,16,55,21.70
2016,04,08,16,56,21.70
2016,04,08,16,57,21.80
2016,04,08,16,58,21.80
2016,04,08,16,59,21.90
2016,04,08,17,00,21.90
2016,04,08,17,01,22.00
2016,04,08,17,02,22.10
2016,04,08,17,03,22.10
2016,04,08,17,04,22.20
2016,04,08,17,05,22.30
2016,04,08,17,06,22.30
2016,04,08,17,07,22.20
2016,04,08,17,08,22.20
2016,04,08,17,09,22.20
2016,04,08,17,10,22.10
2016,04,08,17,11,22.10
2016,04,08,17,12,22.00
2016,04,08,17,13,22.00
2016,04,08,17,14,22.10
2016,04,08,17,15,22.00
2016,04,08,17,16,22.00
2016,04,08,17,17,22.00
2016,04,08,17,18,22.10
2016,04,08,17,19,22.10